Regional Weather Roundup
Issued by NWS

Home | Current Version | Previous Version | Graphics & Text | Print | Product List | Glossary On
Versions: 1 2 3 4 5 6 7 8 9 10 11 12 13 14 15 16 17 18 19 20 21 22 23 24 25 26 27 28 29 30 31 32 33 34 35 36 37 38 39 40 41 42 43 44 45 46 47 48 49 50
000
ASUS44 KMEG 281210
RWRTN
TENNESSEE HOURLY STATE WEATHER ROUNDUP
NATIONAL WEATHER SERVICE MEMPHIS TN
700 AM CDT WED JUN 28 2017

TNZ002-004-019-021-049-052-054-088>092-281300-
WEST TENNESSEE

CITY           SKY/WX    TMP DP  RH WIND       PRES   REMARKS
MEMPHIS INTL   MOSUNNY   72  63  73 S8        30.06R
NWS MEMPHIS      N/A     68 N/A N/A MISG        N/A
JACKSON        SUNNY     65  63  93 CALM      30.10R
SOMERVILLE     SUNNY     66  63  88 CALM      30.08R
COVINGTON      SUNNY     66  64  94 CALM      30.08R
UNION CITY     SUNNY     64  61  88 SE3       30.07F
BOLIVAR        SUNNY     64  63  94 CALM      30.08S
HUNTINGDON     SUNNY     64  61  88 E3        30.09S
LEXINGTON      SUNNY     59  59 100 CALM      30.11R
SELMER         SUNNY     64  61  88 CALM      30.10R
SAVANNAH       SUNNY     63  61  94 CALM      30.09R
$$

TNZ008-025-027-028-033-062-065-066-281300-
NORTH MIDDLE TENNESSEE

CITY           SKY/WX    TMP DP  RH WIND       PRES   REMARKS
NASHVILLE      MOSUNNY   65  58  78 E5        30.16R
PORTLAND       SUNNY     63  57  82 S5        30.13R
CLARKSVILLE    SUNNY     61  57  87 CALM      30.12R
SMYRNA         SUNNY     60  58  92 CALM      30.17R
COOKEVILLE     SUNNY     57  55  94 CALM      30.17R
GALLATIN       SUNNY     63  55  77 CALM      30.17R
CROSSVILLE     SUNNY     57  54  89 CALM      30.20R
$$

TNZ061-075-076-078-094-096-097-281300-
SOUTH MIDDLE TENNESSEE

CITY           SKY/WX    TMP DP  RH WIND       PRES   REMARKS
FAYETTEVILLE   SUNNY     64  57  77 CALM      30.13R
TULLAHOMA      SUNNY     61  55  82 CALM      30.15S
WINCHESTER     SUNNY     64  55  72 CALM      30.14R
MCMINNVILLE    SUNNY     57  57 100 CALM      30.15R
COLUMBIA       SUNNY     59  59 100 CALM      30.12R
SHELBYVILLE    SUNNY     61  57  88 CALM      30.14R
$$

TNZ017-018-042-046-047-281300-
NORTHEAST TENNESSEE

CITY           SKY/WX    TMP DP  RH WIND       PRES   REMARKS
TRI CITIES     SUNNY     56  52  86 CALM      30.21S
ELIZABETHTON   SUNNY     57  52  82 CALM      30.21S
$$

TNZ012-013-036-069-073-074-281300-
CENTRAL EAST TENNESSEE

CITY           SKY/WX    TMP DP  RH WIND       PRES   REMARKS
KNOXVILLE      MOSUNNY   59  52  77 NE3       30.16R
OAK RIDGE      SUNNY     60  55  83 CALM      30.18R
DOWNTOWN KNOXV SUNNY     59  57  94 CALM      30.16R
GATLINBURG     SUNNY     55  50  82 CALM      30.16S
MORRISTOWN     SUNNY     61  54  77 NE5       30.17R
JACKSBORO      SUNNY     55  55 100 CALM      30.22R
$$

TNZ083-085-099-281300-
SOUTHEAST TENNESSEE

CITY           SKY/WX    TMP DP  RH WIND       PRES   REMARKS
CHATTANOOGA    MOSUNNY   62  58  86 CALM      30.16R
DAYTON         SUNNY     59  59 100 CALM      30.16R
$$

SKY/WX REPORTED AS FAIR MEANS FEW OR NO CLOUDS BELOW
12 THOUSAND FEET.




USA.gov is the U.S. government's official web portal to all federal, state and local government web resources and services.